 DECODE 2-LINE ELSETS WITH THE FOLLOWING KEY:
 1 AAAAAU 00  0  0 BBBBB.BBBBBBBB  .CCCCCCCC  00000-0  00000-0 
0  DDDZ
 2 AAAAA EEE.EEEE FFF.FFFF GGGGGGG HHH.HHHH III.IIII JJ.
JJJJJJJJKKKKKZ
 KEY: A-CATALOGNUM B-EPOCHTIME C-DECAY D-ELSETNUM E-INCLINATION
 F-RAAN
 G-ECCENTRICITY H-ARGPERIGEE I-MNANOM J-MNMOTION K-ORBITNUM Z-
CHECKSUM

FO-29
1 24278U 96046B   03163.87697735  .00000054  00000-0  94658-4 0  5972
2 24278  98.5565 299.6812 0350371 280.3980  75.7848 13.52882180336761

 ■ 軌道要素2:「jamsat−keps:1314」より 

SB KEPS @ AMSAT  $ORB03163.O
Orbital Elements  03163.OSCAR

HR AMSAT ORBITAL ELEMENTS FOR OSCAR SATELLITES
>FROM WA5QGD FORT WORTH,TX June 12, 2003
SEND SUBSCRIBE/UNSUBSCRIBE TO majordomo@amsat.org ONLY
BID: ORB03163.O
TO ALL RADIO AMATEURS BT

Satellite: FO-29
Catalog number: 24278
Epoch time:      03163.87697735
Element set:     597
Inclination:       98.5565 deg
RA of node:       299.6812 deg
Eccentricity:    0.0350371
Arg of perigee:   280.3980 deg
Mean anomaly:      75.7848 deg
Mean motion:   13.52882180 rev/day
Decay rate:        5.4e-07 rev/day^2
Epoch rev:           33676
Checksum:              366

------------------- FO-29(JAS-2)のテレメトリに関する情報 --------------------
-- 
 
2)上記2003年7月10日(木)のテレメトリの15:24のパスの
最終行を分析しておきます。

AS34047C  10Jun2003
15:24-15:39(JST)
AOS   MEL  LOS  Elev
  6   289  209  51.8
Freq. 435.806-.787Hz
(JAS-2  No.124  B 300-1280)

HI HI A6 C7 80 55 00 D5 9A 67 00 31 8D 90 77 60 95 92 B0 75 B8 B6 B7 B8 B6 
 
テレメトリ   内 容        換算算値 単 位
3C	磁気センサーZ軸=	69117.6	[nT]
3D	磁気センサX軸	=	70588.2	[nT]
4A	太陽電池発生電流=	1166.7	[mA]
4B	B充放電電流	=	-118.4	[mA]
4C	B端子電圧	=	16.0	[V]
4D	B中間端子電圧	=	7.0	[V]
5A	バス電圧	=	17.3	[V]
5B	JTA送信電力	=	662.4	[mW]
5C 	構体温度1	=	10.4	[℃]
5D	構体温度2	=	11.2	[℃]
6A	構体温度3	=	10.8	[℃]
6B	構体温度4	=	10.4	[℃]
6C	Bセル温度	=	11.2	[℃]

 ========================== FO-29(ふじ3号)のテレメトリ分析、
QSO情報等 =====================
   
 3)[jamsat-bb:12920]FO-29 CW telemetryにおいて脇田美根夫氏がFO
-29 のテレメトリ-の詳しい解析を
  されていましたので転載させて頂きました。

 2003年2月3日に受信された衛星 FO-29 の CWテレメトリ
を、プログラム『Fo29cwt2』を用いて解析してみました。

http://www.asahi-net.or.jp/~ei7m-wkt/numbr364.htm
http://www.ne.jp/asahi/hamradio/je9pel/fo29cwt2.zip

-------------------------------------------
Name: JE9PEL/1 脇田
Mail: ei7m-wkt@asahi-net.or.jp
URL : http://www.asahi-net.or.jp/~ei7m-wkt/
QTH : Yokohama, Japan
Date: Feb 7, 2003
-------------------------------------------
 ===============================================================
==================================
 
 4)JARL のホームページに運用予定が記載されていましたので
ご紹介します.
       ( http://www.jarl.or.jp/Japanese/3_Fuji/new/uy.htm )
       
        *** 運用予定について ***

        当分の間     アナログ系運用

  * なお,運用予定は都合により,変更することがありますの,で
あらかじめご了承願います。

 照会先 : lab@jarl.or.jp

 最新の情報はテレホンサービス(03−3942−1000)をお聞
きください。  
  
  ふじ2号(JAS−1b)の運用 

 CWテレメトリの機能に障害が発生しています。詳細は「ふじ2号」
の現況をご覧ください。
 運用はアナログ系の連続運用とします。 
     
-----------------------    FO−20(JAS-1b)道要素   ----------------------
---
  
  ■ 軌道要素1 :出典はFO-29「ふじ3号」に同じ.
  
FO-20
1 20480U 90013C   03162.90139535  .00000004  00000-0  73113-4 0 05061
2 20480 099.0654 104.4496 0540833 107.2095 258.8918 12.83333488625056
 
  ■ 軌道要素2 :出典はFO−29「ふじ3号」に同じ.
               
Satellite: FO-20
Catalog number: 20480
Epoch time:      03162.90139535
Element set:    0506
Inclination:      099.0654 deg
RA of node:       104.4496 deg
Eccentricity:    0.0540833
Arg of perigee:   107.2095 deg
Mean anomaly:     258.8918 deg
Mean motion:   12.83333488 rev/day
Decay rate:        4.0e-08 rev/day^2
Epoch rev:           62505
Checksum:              300

--------------------------------------------------------------------------------
 
         ■ ふじ2号/FO−20/JAS-1b ■      
            
          「ふじ2号」 現況                          
                                                        
             
   JAS-1b(ふじ2号)のCWテレメトリ信号に,1997年10月1
2日12時(JST)の
 日本上空通過時,3桁の数字が繰り返されるはずが3個の長音の繰り
返しとなっているという
 異常が発見されました。この不具合は次の通過時からは回復していま
したが13日15時20分の
 通過時に再び観測されました。現在はA0の送信が続いています。衛
星のアナログ系中継モード
 動作は異常が無く,正常時のテレメトリ内容からは衛星の動作に異常
は認められません。従って,
 直ちに衛星のミッションに影響することは無いと予想されますので,
当面はアナログ系中継
 モードを継続します。衛星は既に打ち上げてから7年8ヶ月を経てお
りますので,今後は監視を
 強化する予定です。アマチュア各位のレポートをお待ちします。
 ------------------------------------------------------------------------------
-- 
  1997年10月14日 00時35分 確認のテレメトリ音 151 KB (A0) 
  1997年10月14日 11時10分 確認のテレメトリ音 216 KB (異常キーイング) 

  以上 JARLのホ−ムページの http://www.jarl.or.jp/Japanese/3_Fuji/new/fuji.
htm

===================== FO-20 ふじ2号 のテレメトリ観測結果 ===================
=

  12月20日(金)13:59(JST)の観測結果ではテレメトリは、
以前観測した単一周波数の
正弦波がドップラー効果で周波数がずれていくのみの状態でした。
                                         
   =============   JAS-2 (ふじ3号)と現在までの情報   ========
===
  
  A.電話によるふじ3号の運用情報
      社団法人日本アマチュア連盟によるサービス
           TEL .   03− 3942 − 1000
  B.アマチュア無線FAXサービス
      JARLによるふじ3号の軌道情報(オービットカレンダー)
         FAX No.  03− 3233 −0055
  C.WWWブラウザで情報を簡単に見れる人のためにJAS-1,JAS‐1b,
   JAS‐2(ふじ1号からふじ3号の衛星としての運用されるまでの名前)の
   概要、打ち上げまでの状況、運用中における状況を説明したホームページを
   紹介しておきます.

     社団法人日本アマチュア無線連盟(JARL)のホームページ

         http://www.jarl.or.jp/Japanese/3_Fuji/new/fuji.htm
     http://www.jarl.or.jp/Japanese/3_Fuji/history/history.htm
 
     宇宙開発事業団(NASDA)ホームページ 

      1)「ふじ1号」(JAS−1:FO−12)
         http://spaceboy.nasda.go.jp/lib/satellites/jas/j/jas_01j.html
         http://spaceboy.nasda.go.jp/lib/satellites/jas/g/h_15017.jpg
         http://spaceboy.nasda.go.jp/lib/satellites/jas/e/jas_01e.html
         http://space.nasda.go.jp/db/kaihatu/eisei/eisei_j/jas_1a_j.html#2
         http://spaceboy.nasda.go.jp/note/eisei/j/eis15h_j.html#eis15h_01_j
         http://www.nasda.go.jp/lib/nasda-news/1996/12/resai_j.html
         http://spaceboy.nasda.go.jp/lib/satellites/jas/g/h_15007.jpg
         http://www.nasda.go.jp/press/2002/02/pb_020220_j.html
      2)「ふじ2号」(JAS−1b:FO−20)
         http://spaceboy.nasda.go.jp/lib/satellites/mos/g/h_21018.jpg
         http://spaceboy.nasda.go.jp/lib/satellites/mos/g/h_21019.jpg
         http://spaceboy.nasda.go.jp/note/eisei/j/eis15h_j.html#eis15h_01_j

      3)「ふじ3号」(JAS−2:FO−29)
         http://www.nasda.go.jp/lib/nasda-news/1996/09/h2_j.html
     http://www.nasda.go.jp/pr/services/presskit/h2-f4/p-h23_e.html
         http://space.nasda.go.jp/db/kaihatu/eisei/eisei_j/jas-2j.html
         http://spaceboy.nasda.go.jp/note/eisei/j/eis15i_j.html#eis15i_03_j

   B膤惘宙工学コンソーシアムホームページ
    東京大学・東京工業大学の小型衛星打ち上げ成功に伴い活発な活動が
    始まりました。
    http://www.unisec.jp/

  D.JAMSATによる軌道情報の活用
        JAMSATのホームページまたはjamsat−kepsの軌道要素より
      衛星の軌道情報を得る.
     JAMSATホームページ
               URL    http://www.jamsat.or.jp
       上記ホームページでは各地で行われるアマチュア通信衛星に関する
      ミューティングのお知らせや世界のアマチュア衛星に関する情報が
      満載されています.

 ========================================================================  
     JAMSATのメンバーのご協力によりJH6MME(高山 秀造)が
    執筆・編集を担当しております.ご指摘の意見、疑問やこのようにしたら
    というアイデアがありましたら小さなことでもかまいませんので気軽に下
    記アドレスまでご連絡ください.jamsat−newsからjas2
    infoへの転載をJH4PHW局坂井さんに担当して頂いております.  
                  E-mail : jh6mme@jamsat.or.jp : jh4phw@jamsat.or.jp
 ===============================   END  ===============================